Terminal Aerodrome Forecast
Issued by NWS

Home | Current Version | Previous Version | Graphics & Text | Print | Product List | Glossary On
Versions: 1 2 3 4 5 6 7 8 9 10 11 12 13 14 15 16 17
000
FTUS45 KGGW 301730
TAFGDV
TAF
KGDV 301730Z 3018/0118 30011KT 5SM -SHSN SCT015 OVC035
     FM011100 00000KT P6SM SCT030 BKN035=

USA.gov is the U.S. government's official web portal to all federal, state and local government web resources and services.